Union Aéronautique de la Côte d'Azur

Union Aéronautique de la Côte d'Azur
UACA
Approuvé A.T.O. EASA – N°FR.ATO.0108

UNION des aéroclubs
Cannes “Ailes d’Azur”, Nice “Côte d’Azur”, Grasse “St Exupery”, ACCA “Francis Séverac”

Un cache-pitot se trouve à bord de chaque avion. Pensez à le mettre en place à la fin de chaque vol !

Avant de quitter l'avion, vérifiez que vous n'emportez pas la checklist

Un vol ne s'entreprend qu'avec un pare-brise parfaitement propre, il en va de votre sécurité, et de celle des autres

Après chaque vol, merci de mettre en place les pares-soleil!


Météo à Cannes:
METAR
LFMD 230200Z AUTO 36005KT 310V030 9999 OVC090 04/00 Q1003 =

TAF
LFMD 221400Z 2215/2315 18005KT 9999 BKN050 BKN090 BECMG 2217/2219 35010KT BECMG 2308/2310 08010KT =

SR / SS: 06:19 / 17:11 UTC (LFMD 2018-02-23)